Location: Poigny-la-Forêt
(48.6876°N, 1.7701°E)
Time: 21:32:00
(UTC+02:00)

ISS - Visible Passes

Search period start: 19 May 2019 00:00
Search period end: 29 May 2019 00:00
Orbit: 407 x 410 km, 51.6° (Epoch: 20 May)

Date Brightness Start Highest point End Pass type
(mag) Time Alt. Az. Time Alt. Az. Time Alt. Az.
19 May -3.6 00:28:11 10° WSW 00:31:29 71° NNW 00:34:48 10° ENE visible
19 May -2.9 02:05:06 10° WNW 02:08:19 48° N 02:11:34 10° E visible
19 May -4.0 03:41:45 10° WNW 03:45:04 81° SSW 03:48:23 10° ESE visible
19 May -2.3 05:18:56 10° W 05:21:16 18° SW 05:23:34 10° S visible
19 May -3.9 23:37:17 10° WSW 23:40:36 86° SSE 23:43:54 10° ENE visible
20 May -2.8 01:14:07 10° W 01:17:21 48° N 01:20:35 10° ENE visible
20 May -3.7 02:50:51 10° WNW 02:54:11 74° NNE 02:57:29 10° ESE visible
20 May -2.9 04:27:40 10° W 04:30:33 28° SW 04:33:26 10° SSE visible
20 May -3.8 22:46:29 10° SW 22:49:43 58° SSE 22:52:59 10° ENE visible
21 May -3.0 00:23:07 10° W 00:26:22 52° N 00:29:37 10° ENE visible
21 May -3.3 01:59:57 10° WNW 02:03:14 58° NNE 02:04:30 32° ENE visible
21 May -1.5 03:36:36 10° WNW 03:37:06 13° W 03:37:06 13° W visible
21 May -3.3 23:32:06 10° W 23:35:23 62° NNW 23:38:40 10° ENE visible
22 May -3.0 01:09:00 10° WNW 01:12:14 50° N 01:14:14 20° ENE visible
22 May -1.9 02:45:38 10° WNW 02:46:55 21° WNW 02:46:55 21° WNW visible
22 May -3.7 22:41:07 10° WSW 22:44:26 81° NNW 22:47:45 10° ENE visible
23 May -2.8 00:18:00 10° WNW 00:21:14 48° N 00:24:28 10° ENE visible
23 May -3.2 01:54:41 10° WNW 01:57:15 50° WNW 01:57:15 50° WNW visible
23 May -2.9 23:26:59 10° W 23:30:12 49° N 23:33:27 10° ENE visible
24 May -3.5 01:03:45 10° WNW 01:07:03 65° NNE 01:07:45 48° ENE visible
24 May -3.1 22:35:55 10° W 22:39:11 56° N 22:42:28 10° ENE visible
25 May -3.1 00:12:48 10° WNW 00:16:03 54° N 00:18:18 18° E visible
25 May -2.2 01:49:25 10° WNW 01:51:01 25° W 01:51:01 25° W visible
25 May -2.9 23:21:47 10° WNW 23:25:00 49° N 23:28:14 10° E visible
26 May -3.9 00:58:25 10° WNW 01:01:37 78° WSW 01:01:37 78° WSW visible
26 May -2.8 22:30:43 10° WNW 22:33:56 48° N 22:37:10 10° ENE visible
27 May -3.7 00:07:27 10° WNW 00:10:46 75° NNE 00:12:14 30° E visible
27 May -1.4 01:44:16 10° W 01:44:57 14° W 01:44:57 14° W visible
27 May -3.3 23:16:28 10° WNW 23:19:44 59° NNE 23:22:53 11° E visible
28 May -2.9 00:53:06 10° WNW 00:55:36 37° WSW 00:55:36 37° WSW visible
28 May -3.0 22:25:26 10° WNW 22:28:40 50° N 22:31:55 10° E visible
